• In Uzbekistan
  • List of Countries
  • For 7 days
  • Water Temperature
  • Satellite Maps
  • Weather Map
  • Weather Widgets
  • user-avatar
    Login

    Hourly Weather Tabarka

    Today, 17 December, Monday

    Time Temperature Precipitation Wind Pressure Humidity
    00:00 +11°C° 0 mm 3 mps 714 mmHg 60%
    01:00 +11°C° 0 mm 3 mps 714 mmHg 61%
    02:00 +11°C° 0 mm 3 mps 714 mmHg 63%
    03:00 +10°C° 0 mm 4 mps 714 mmHg 64%
    04:00 +10°C° 0 mm 4 mps 714 mmHg 65%
    05:00 +9°C° 0 mm 5 mps 714 mmHg 69%
    06:00 +9°C° 0 mm 5 mps 714 mmHg 72%
    07:00 +9°C° 0 mm 6 mps 715 mmHg 75%
    08:00 +10°C° 0.1 mm 7 mps 715 mmHg 74%
    09:00 +10°C° 0.1 mm 8 mps 716 mmHg 73%
    10:00 +11°C° 0.1 mm 8 mps 716 mmHg 72%
    11:00 +12°C° 0.2 mm 9 mps 716 mmHg 68%
    12:00 +12°C° 0.2 mm 9 mps 716 mmHg 65%
    13:00 +12°C° 0.2 mm 10 mps 716 mmHg 61%
    14:00 +12°C° 0.1 mm 9 mps 717 mmHg 64%
    15:00 +11°C° 0.1 mm 9 mps 717 mmHg 66%
    16:00 +10°C° 0.1 mm 8 mps 717 mmHg 68%
    17:00 +9°C° 0.1 mm 7 mps 717 mmHg 73%
    18:00 +8°C° 0.1 mm 7 mps 718 mmHg 77%
    19:00 +7°C° 0.1 mm 6 mps 718 mmHg 81%
    20:00 +7°C° 0 mm 5 mps 718 mmHg 82%
    21:00 +7°C° 0 mm 5 mps 719 mmHg 83%
    22:00 +7°C° 0 mm 5 mps 719 mmHg 84%
    23:00 +6°C° 0 mm 5 mps 719 mmHg 85%

    Tomorrow, 18 December, Tuesday

    Time Temperature Precipitation Wind Pressure Humidity
    00:00 +6°C° 0 mm 5 mps 719 mmHg 86%
    01:00 +6°C° 0 mm 5 mps 719 mmHg 87%
    02:00 +6°C° 0 mm 4 mps 719 mmHg 87%
    03:00 +5°C° 0 mm 4 mps 719 mmHg 88%
    04:00 +5°C° 0 mm 4 mps 719 mmHg 88%
    05:00 +5°C° 0 mm 3 mps 719 mmHg 88%
    06:00 +5°C° 0 mm 3 mps 719 mmHg 87%
    07:00 +5°C° 0 mm 3 mps 719 mmHg 87%
    08:00 +7°C° 0 mm 3 mps 719 mmHg 80%
    09:00 +8°C° 0 mm 2 mps 719 mmHg 74%
    10:00 +10°C° 0 mm 2 mps 719 mmHg 67%
    11:00 +12°C° 0 mm 2 mps 719 mmHg 61%
    12:00 +13°C° 0 mm 1 mps 719 mmHg 55%
    13:00 +14°C° 0 mm 1 mps 718 mmHg 50%
    14:00 +14°C° 0 mm 1 mps 718 mmHg 49%
    15:00 +14°C° 0 mm 1 mps 718 mmHg 48%
    16:00 +14°C° 0 mm 1 mps 718 mmHg 47%
    17:00 +13°C° 0 mm 1 mps 717 mmHg 50%
    18:00 +10°C° 0 mm 2 mps 717 mmHg 54%
    19:00 +9°C° 0 mm 2 mps 717 mmHg 57%
    20:00 +8°C° 0 mm 2 mps 717 mmHg 57%
    21:00 +8°C° 0 mm 2 mps 717 mmHg 56%
    22:00 +8°C° 0 mm 2 mps 717 mmHg 56%
    23:00 +7°C° 0 mm 2 mps 716 mmHg 56%

    Day after tomorrow, 19 December, Wednesday

    Time Temperature Precipitation Wind Pressure Humidity
    00:00 +7°C° 0 mm 2 mps 716 mmHg 57%
    01:00 +7°C° 0 mm 2 mps 716 mmHg 57%
    02:00 +7°C° 0 mm 2 mps 716 mmHg 57%
    03:00 +7°C° 0 mm 2 mps 715 mmHg 58%
    04:00 +6°C° 0 mm 2 mps 715 mmHg 58%
    05:00 +6°C° 0 mm 2 mps 715 mmHg 58%
    06:00 +6°C° 0 mm 2 mps 715 mmHg 58%
    07:00 +6°C° 0 mm 2 mps 715 mmHg 57%
    08:00 +8°C° 0 mm 2 mps 715 mmHg 54%
    09:00 +10°C° 0 mm 2 mps 716 mmHg 51%
    10:00 +13°C° 0 mm 2 mps 716 mmHg 48%
    11:00 +14°C° 0 mm 2 mps 716 mmHg 43%
    12:00 +16°C° 0 mm 2 mps 715 mmHg 38%
    13:00 +19°C° 0 mm 1 mps 715 mmHg 34%
    14:00 +19°C° 0 mm 1 mps 715 mmHg 37%
    15:00 +18°C° 0 mm 1 mps 715 mmHg 40%
    16:00 +18°C° 0 mm 1 mps 714 mmHg 43%
    17:00 +15°C° 0 mm 1 mps 714 mmHg 48%
    18:00 +13°C° 0 mm 1 mps 714 mmHg 53%
    19:00 +11°C° 0 mm 1 mps 714 mmHg 57%
    20:00 +11°C° 0 mm 1 mps 715 mmHg 58%
    21:00 +11°C° 0 mm 1 mps 715 mmHg 58%
    22:00 +11°C° 0 mm 1 mps 715 mmHg 58%
    23:00 +10°C° 0 mm 1 mps 715 mmHg 59%

    20 December, Thursday

    Time Temperature Precipitation Wind Pressure Humidity
    00:00 +10°C° 0 mm 1 mps 715 mmHg 60%
    01:00 +10°C° 0 mm 1 mps 715 mmHg 60%
    02:00 +10°C° 0 mm 1 mps 715 mmHg 60%
    03:00 +10°C° 0 mm 1 mps 715 mmHg 59%
    04:00 +10°C° 0 mm 1 mps 715 mmHg 59%
    05:00 +10°C° 0 mm 1 mps 715 mmHg 59%
    06:00 +10°C° 0 mm 1 mps 715 mmHg 60%
    07:00 +8°C° 0 mm 2 mps 715 mmHg 60%
    08:00 +10°C° 0 mm 2 mps 716 mmHg 57%
    09:00 +12°C° 0 mm 2 mps 716 mmHg 54%
    10:00 +14°C° 0 mm 2 mps 717 mmHg 52%
    11:00 +14°C° 0 mm 2 mps 717 mmHg 54%
    12:00 +14°C° 0 mm 3 mps 717 mmHg 56%
    13:00 +16°C° 0 mm 3 mps 717 mmHg 58%
    14:00 +14°C° 0 mm 3 mps 717 mmHg 61%
    15:00 +14°C° 0 mm 3 mps 716 mmHg 63%
    16:00 +13°C° 0 mm 3 mps 716 mmHg 66%
    17:00 +12°C° 0 mm 3 mps 717 mmHg 72%
    18:00 +12°C° 0 mm 2 mps 717 mmHg 78%
    19:00 +10°C° 0 mm 2 mps 717 mmHg 83%
    20:00 +10°C° 0 mm 1 mps 717 mmHg 84%
    21:00 +10°C° 0 mm 1 mps 718 mmHg 85%
    22:00 +10°C° 0 mm 1 mps 718 mmHg 85%
    23:00 +10°C° 0 mm 1 mps 718 mmHg 85%

    21 December, Friday

    Time Temperature Precipitation Wind Pressure Humidity
    00:00 +9°C° 0 mm 1 mps 718 mmHg 85%
    01:00 +9°C° 0 mm 1 mps 718 mmHg 84%
    02:00 +9°C° 0 mm 1 mps 718 mmHg 84%
    03:00 +9°C° 0 mm 1 mps 718 mmHg 83%
    04:00 +8°C° 0 mm 1 mps 718 mmHg 82%
    05:00 +8°C° 0 mm 1 mps 718 mmHg 81%
    06:00 +7°C° 0 mm 2 mps 718 mmHg 80%
    07:00 +6°C° 0 mm 2 mps 718 mmHg 79%
    08:00 +8°C° 0 mm 2 mps 719 mmHg 73%
    09:00 +9°C° 0 mm 2 mps 719 mmHg 66%
    10:00 +12°C° 0 mm 2 mps 720 mmHg 60%
    11:00 +13°C° 0 mm 2 mps 720 mmHg 55%
    12:00 +12°C° 0 mm 3 mps 720 mmHg 50%
    13:00 +13°C° 0 mm 3 mps 720 mmHg 44%
    14:00 +13°C° 0 mm 3 mps 719 mmHg 45%
    15:00 +13°C° 0 mm 3 mps 719 mmHg 46%
    16:00 +13°C° 0 mm 3 mps 719 mmHg 47%
    17:00 +12°C° 0 mm 2 mps 720 mmHg 54%
    18:00 +10°C° 0 mm 2 mps 720 mmHg 60%
    19:00 +9°C° 0 mm 1 mps 720 mmHg 66%
    20:00 +8°C° 0 mm 2 mps 720 mmHg 68%
    21:00 +8°C° 0 mm 2 mps 720 mmHg 69%
    22:00 +7°C° 0 mm 2 mps 720 mmHg 70%
    23:00 +7°C° 0 mm 2 mps 720 mmHg 69%

    22 December, Saturday

    Time Temperature Precipitation Wind Pressure Humidity
    00:00 +7°C° 0 mm 2 mps 720 mmHg 69%
    01:00 +7°C° 0 mm 2 mps 720 mmHg 68%
    02:00 +7°C° 0 mm 2 mps 720 mmHg 67%
    03:00 +7°C° 0 mm 2 mps 719 mmHg 66%
    04:00 +6°C° 0 mm 2 mps 719 mmHg 64%
    05:00 +6°C° 0 mm 2 mps 719 mmHg 63%
    06:00 +7°C° 0 mm 2 mps 720 mmHg 61%
    07:00 +7°C° 0 mm 2 mps 720 mmHg 59%
    08:00 +8°C° 0 mm 2 mps 720 mmHg 55%
    09:00 +10°C° 0 mm 2 mps 720 mmHg 51%
    10:00 +13°C° 0 mm 2 mps 721 mmHg 46%
    11:00 +14°C° 0 mm 2 mps 721 mmHg 43%
    12:00 +15°C° 0 mm 2 mps 721 mmHg 41%
    13:00 +16°C° 0 mm 3 mps 721 mmHg 38%
    14:00 +16°C° 0 mm 2 mps 720 mmHg 41%
    15:00 +16°C° 0 mm 2 mps 720 mmHg 44%
    16:00 +16°C° 0 mm 2 mps 720 mmHg 47%
    17:00 +14°C° 0 mm 2 mps 720 mmHg 51%
    18:00 +13°C° 0 mm 2 mps 720 mmHg 56%
    19:00 +11°C° 0 mm 1 mps 720 mmHg 60%
    20:00 +11°C° 0 mm 1 mps 721 mmHg 61%
    21:00 +11°C° 0 mm 1 mps 721 mmHg 61%
    22:00 +9°C° 0 mm 2 mps 721 mmHg 62%
    23:00 +9°C° 0 mm 2 mps 721 mmHg 62%
    Show more